EN

Hourly Weather Panuco de Coronado

Today, 28 February, Sunday

Time Temperature Precipitation Wind Pressure Humidity
00:00 +9°C° 0 mm 3 mps 577 mmHg 45%
01:00 +8°C° 0 mm 3 mps 576 mmHg 47%
02:00 +8°C° 0 mm 3 mps 576 mmHg 50%
03:00 +7°C° 0 mm 3 mps 576 mmHg 49%
04:00 +7°C° 0 mm 2 mps 575 mmHg 49%
05:00 +7°C° 0 mm 2 mps 575 mmHg 49%
06:00 +8°C° 0 mm 2 mps 576 mmHg 43%
07:00 +10°C° 0 mm 2 mps 577 mmHg 38%
08:00 +13°C° 0 mm 2 mps 578 mmHg 32%
09:00 +15°C° 0 mm 4 mps 580 mmHg 26%
10:00 +19°C° 0 mm 6 mps 581 mmHg 21%
11:00 +22°C° 0 mm 8 mps 582 mmHg 15%
12:00 +23°C° 0 mm 9 mps 582 mmHg 14%
13:00 +24°C° 0 mm 10 mps 581 mmHg 13%
14:00 +26°C° 0 mm 11 mps 581 mmHg 12%
15:00 +24°C° 0 mm 10 mps 580 mmHg 13%
16:00 +23°C° 0 mm 10 mps 580 mmHg 14%
17:00 +21°C° 0 mm 9 mps 580 mmHg 15%
18:00 +18°C° 0 mm 7 mps 579 mmHg 20%
19:00 +15°C° 0 mm 6 mps 579 mmHg 26%
20:00 +12°C° 0 mm 4 mps 578 mmHg 31%
21:00 +11°C° 0 mm 4 mps 578 mmHg 35%
22:00 +10°C° 0 mm 3 mps 578 mmHg 39%
23:00 +9°C° 0 mm 2 mps 578 mmHg 43%

Tomorrow, 1 March, Monday

Time Temperature Precipitation Wind Pressure Humidity
00:00 +8°C° 0 mm 2 mps 577 mmHg 47%
01:00 +7°C° 0 mm 2 mps 576 mmHg 50%
02:00 +7°C° 0 mm 1 mps 576 mmHg 53%
03:00 +7°C° 0 mm 1 mps 576 mmHg 55%
04:00 +7°C° 0 mm 1 mps 575 mmHg 57%
05:00 +6°C° 0 mm 1 mps 575 mmHg 59%
06:00 +8°C° 0 mm 1 mps 576 mmHg 52%
07:00 +10°C° 0 mm 1 mps 578 mmHg 44%
08:00 +12°C° 0 mm 1 mps 579 mmHg 37%
09:00 +14°C° 0 mm 1 mps 580 mmHg 32%
10:00 +18°C° 0 mm 1 mps 581 mmHg 26%
11:00 +20°C° 0 mm 1 mps 582 mmHg 21%
12:00 +20°C° 0 mm 2 mps 582 mmHg 19%
13:00 +21°C° 0 mm 2 mps 581 mmHg 17%
14:00 +22°C° 0 mm 3 mps 581 mmHg 16%
15:00 +21°C° 0 mm 4 mps 581 mmHg 17%
16:00 +21°C° 0 mm 6 mps 580 mmHg 18%
17:00 +20°C° 0 mm 7 mps 580 mmHg 20%
18:00 +15°C° 0 mm 6 mps 579 mmHg 20%
19:00 +12°C° 0 mm 5 mps 579 mmHg 19%
20:00 +7°C° 0 mm 4 mps 578 mmHg 19%
21:00 +6°C° 0 mm 4 mps 578 mmHg 20%
22:00 +5°C° 0 mm 3 mps 578 mmHg 20%
23:00 +5°C° 0 mm 2 mps 578 mmHg 21%

Day after tomorrow, 2 March, Tuesday

Time Temperature Precipitation Wind Pressure Humidity
00:00 +4°C° 0 mm 2 mps 577 mmHg 22%
01:00 +2°C° 0 mm 3 mps 577 mmHg 22%
02:00 +2°C° 0 mm 3 mps 577 mmHg 23%
03:00 +2°C° 0 mm 2 mps 576 mmHg 27%
04:00 +1°C° 0 mm 2 mps 576 mmHg 30%
05:00 +1°C° 0 mm 1 mps 575 mmHg 33%
06:00 +3°C° 0 mm 1 mps 576 mmHg 33%
07:00 +4°C° 0 mm 1 mps 577 mmHg 32%
08:00 +6°C° 0 mm 1 mps 579 mmHg 32%
09:00 +8°C° 0 mm 1 mps 579 mmHg 29%
10:00 +11°C° 0 mm 1 mps 580 mmHg 26%
11:00 +14°C° 0 mm 1 mps 581 mmHg 23%
12:00 +16°C° 0 mm 1 mps 581 mmHg 21%
13:00 +20°C° 0 mm 1 mps 581 mmHg 18%
14:00 +21°C° 0 mm 2 mps 581 mmHg 15%
15:00 +21°C° 0 mm 2 mps 581 mmHg 16%
16:00 +21°C° 0 mm 3 mps 581 mmHg 17%
17:00 +21°C° 0 mm 4 mps 580 mmHg 17%
18:00 +17°C° 0 mm 3 mps 579 mmHg 28%
19:00 +13°C° 0 mm 2 mps 578 mmHg 38%
20:00 +9°C° 0 mm 1 mps 577 mmHg 48%
21:00 +8°C° 0 mm 1 mps 577 mmHg 51%
22:00 +8°C° 0 mm 1 mps 577 mmHg 54%
23:00 +7°C° 0 mm 1 mps 577 mmHg 58%

3 March, Wednesday

Time Temperature Precipitation Wind Pressure Humidity
00:00 +7°C° 0 mm 1 mps 576 mmHg 59%
01:00 +5°C° 0 mm 0 mps 576 mmHg 60%
02:00 +5°C° 0 mm 0 mps 576 mmHg 62%
03:00 +4°C° 0 mm 0 mps 576 mmHg 62%
04:00 +4°C° 0 mm 0 mps 575 mmHg 62%
05:00 +4°C° 0 mm 0 mps 575 mmHg 63%
06:00 +7°C° 0 mm 0 mps 577 mmHg 51%
07:00 +10°C° 0 mm 0 mps 579 mmHg 39%
08:00 +13°C° 0 mm 0 mps 581 mmHg 27%
09:00 +18°C° 0 mm 1 mps 582 mmHg 23%
10:00 +21°C° 0 mm 1 mps 583 mmHg 18%
11:00 +23°C° 0 mm 1 mps 584 mmHg 14%
12:00 +24°C° 0 mm 2 mps 584 mmHg 13%
13:00 +25°C° 0 mm 2 mps 583 mmHg 12%
14:00 +26°C° 0 mm 2 mps 583 mmHg 11%
15:00 +25°C° 0 mm 3 mps 583 mmHg 12%
16:00 +25°C° 0 mm 3 mps 583 mmHg 12%
17:00 +25°C° 0 mm 4 mps 582 mmHg 12%
18:00 +20°C° 0 mm 4 mps 582 mmHg 17%
19:00 +17°C° 0 mm 4 mps 581 mmHg 22%
20:00 +12°C° 0 mm 4 mps 580 mmHg 26%
21:00 +11°C° 0 mm 3 mps 580 mmHg 29%
22:00 +10°C° 0 mm 2 mps 580 mmHg 32%
23:00 +9°C° 0 mm 1 mps 579 mmHg 35%

4 March, Thursday

Time Temperature Precipitation Wind Pressure Humidity
00:00 +9°C° 0 mm 1 mps 579 mmHg 39%
01:00 +8°C° 0 mm 1 mps 579 mmHg 43%
02:00 +6°C° 0 mm 0 mps 578 mmHg 47%
03:00 +6°C° 0 mm 0 mps 578 mmHg 50%
04:00 +5°C° 0 mm 0 mps 578 mmHg 53%
05:00 +5°C° 0 mm 0 mps 578 mmHg 56%
06:00 +8°C° 0 mm 0 mps 580 mmHg 45%
07:00 +12°C° 0 mm 1 mps 581 mmHg 34%
08:00 +15°C° 0 mm 1 mps 583 mmHg 24%
09:00 +18°C° 0 mm 1 mps 584 mmHg 21%
10:00 +19°C° 0 mm 2 mps 585 mmHg 19%
11:00 +21°C° 0 mm 3 mps 585 mmHg 16%
12:00 +22°C° 0 mm 3 mps 585 mmHg 15%
13:00 +25°C° 0 mm 3 mps 584 mmHg 14%
14:00 +26°C° 0 mm 3 mps 584 mmHg 13%
15:00 +26°C° 0 mm 3 mps 584 mmHg 13%
16:00 +26°C° 0 mm 3 mps 583 mmHg 13%
17:00 +26°C° 0 mm 3 mps 583 mmHg 13%
18:00 +21°C° 0 mm 3 mps 582 mmHg 18%
19:00 +18°C° 0 mm 3 mps 581 mmHg 24%
20:00 +14°C° 0 mm 3 mps 580 mmHg 29%
21:00 +13°C° 0 mm 2 mps 579 mmHg 34%
22:00 +10°C° 0 mm 2 mps 579 mmHg 40%
23:00 +10°C° 0 mm 1 mps 578 mmHg 45%

5 March, Friday

Time Temperature Precipitation Wind Pressure Humidity
00:00 +9°C° 0 mm 1 mps 577 mmHg 49%
01:00 +8°C° 0 mm 1 mps 577 mmHg 53%
02:00 +8°C° 0 mm 1 mps 576 mmHg 58%
03:00 +8°C° 0 mm 1 mps 576 mmHg 54%
04:00 +8°C° 0 mm 1 mps 576 mmHg 51%
05:00 +7°C° 0 mm 2 mps 577 mmHg 48%
06:00 +10°C° 0 mm 2 mps 578 mmHg 42%
07:00 +13°C° 0 mm 2 mps 579 mmHg 37%
08:00 +14°C° 0 mm 3 mps 580 mmHg 32%
09:00 +19°C° 0 mm 4 mps 582 mmHg 24%
10:00 +22°C° 0 mm 5 mps 583 mmHg 17%
11:00 +26°C° 0 mm 6 mps 584 mmHg 10%
12:00 +27°C° 0 mm 7 mps 583 mmHg 9%
13:00 +28°C° 0 mm 7 mps 583 mmHg 9%
14:00 +29°C° 0 mm 8 mps 583 mmHg 8%
15:00 +28°C° 0 mm 8 mps 582 mmHg 10%
16:00 +27°C° 0 mm 8 mps 582 mmHg 12%
17:00 +26°C° 0 mm 8 mps 581 mmHg 13%
18:00 +21°C° 0 mm 6 mps 580 mmHg 19%
19:00 +18°C° 0 mm 4 mps 579 mmHg 25%
20:00 +14°C° 0 mm 1 mps 578 mmHg 31%
21:00 +13°C° 0 mm 1 mps 578 mmHg 32%
22:00 +12°C° 0 mm 1 mps 578 mmHg 33%
23:00 +11°C° 0 mm 1 mps 578 mmHg 34%
Show more

We Need Your Consent

Meteoprog and our Service Providers may store and access personal data such as cookies, device identifiers or other similar technologies on your device and process such data to personalise content and ads, as well as provide social media features and to analyse the traffic.

  • Store and/or access information on your device

    Cookies, device identifiers or other information can be stored or accessed on your device for the purposes indicated above.

  • Personalised ads and content, ad and content measurement, audience insights, and products development

    Ads and content can be personalised based on a profile. More data can be added to better personalise ads and content. Ad and content performance can be measured. Insights about the audience who saw the ads and content can be derived. Such data can be used to develop or improve user’s experience, systems and software.

By clicking ‘I Agree’ you will allow the use of indicated cookies, device identifiers, web beacons or other similar technologies. Your settings can be changed in the browser on your device.

For certain purposes, legitimate interests may be relied on, rather than consent. You can read more about this in our Privacy and Cookie Policy.